Location: Austin
(30.3000°N, 97.7500°W)
Time: 02:36:19
(UTC-05:00)

Intercosmos 24 - Pass Details

Date: 15 May 2024
Orbit: 498 x 2364 km, 82.6° (Epoch: 29 May)

Event Time Altitude Azimuth Distance (km) Brightness Sun altitude
Exits shadow 21:45:44 23° 180° (S) 1,090 5.0 -17.3°
Maximum altitude 21:47:49 81° 96° (E) 509 3.5 -17.6°
Drops below altitude 10° 21:51:29 10° 8° (N) 1,777 6.8 -18.3°
Sets 21:53:45 0° 8° (N) 2,776 7.8 -18.7°
